Date,TemperatureHighF,TemperatureAvgF,TemperatureLowF,DewpointHighF,DewpointAvgF,DewpointLowF,HumidityHigh,HumidityAvg,HumidityLow,PressureMaxIn,PressureMinIn,WindSpeedMaxMPH,WindSpeedAvgMPH,GustSpeedMaxMPH,PrecipitationSumIn
2013-4-1,62.8,46.5,34.7,46.1,37.9,14.1,99,75,40,29.70,29.40,14,5,0,0.21
2013-4-2,41.9,34.3,25.3,20.5,15.1,11.6,68,46,30,29.86,29.71,17,6,0,0.00
2013-4-3,48.0,36.6,29.5,18.4,15.3,12.1,58,43,26,30.08,29.85,20,7,0,0.01
2013-4-4,58.3,41.3,25.2,28.1,18.5,11.2,71,43,19,30.23,29.97,14,5,0,0.00
2013-4-5,64.0,45.8,36.9,32.6,28.1,21.7,76,54,21,29.97,29.53,12,5,0,0.00
2013-4-6,50.5,37.9,23.9,26.7,13.8,4.1,75,41,16,30.24,29.79,10,4,0,0.00
2013-4-7,55.2,41.1,21.2,42.0,29.1,18.2,97,66,33,30.25,29.92,22,6,0,0.00
2013-4-8,70.9,53.8,39.0,44.7,41.3,36.1,99,68,29,29.99,29.87,7,3,0,0.00
2013-4-9,73.8,57.5,46.8,55.0,45.8,40.8,99,69,36,29.99,29.75,12,4,0,0.01
2013-4-10,140.9,55.0,22.5,99.9,49.9,22.3,99,81,52,29.91,29.75,7,2,0,0.13
2013-4-11,56.8,48.3,39.4,48.0,43.1,29.9,99,85,49,30.05,29.71,7,2,0,0.07
2013-4-12,40.8,38.5,37.2,38.5,37.1,32.0,99,95,72,30.06,29.67,10,4,0,0.58
2013-4-13,55.0,44.5,35.6,41.3,37.3,35.3,99,79,49,29.82,29.64,9,2,0,0.08
2013-4-14,54.0,43.5,32.4,41.6,33.5,27.4,99,71,41,30.13,29.82,14,3,0,0.00
2013-4-15,61.0,44.2,26.6,38.4,33.0,26.4,99,69,37,30.31,30.13,9,2,0,0.00
2013-4-16,66.4,50.5,30.6,52.3,42.9,30.4,99,77,50,30.32,29.97,17,6,0,0.00
2013-4-17,72.1,59.1,41.5,54.1,40.6,30.1,92,55,25,30.23,29.96,8,3,0,0.00
2013-4-18,64.2,50.2,32.2,47.4,36.4,28.9,99,65,34,30.33,30.06,14,5,0,0.00
2013-4-19,73.9,62.9,51.8,64.5,59.5,48.1,99,90,68,30.05,29.54,18,7,0,0.01
2013-4-20,65.1,54.2,43.9,63.9,42.9,27.0,99,69,38,30.12,29.49,14,5,0,0.73
2013-4-21,59.5,44.1,32.7,32.2,25.1,21.5,94,50,25,30.59,30.13,9,3,0,0.00
2013-4-22,57.4,42.3,27.0,37.8,31.4,26.8,99,70,34,30.65,30.50,12,4,0,0.00
2013-4-23,42.4,40.5,35.4,42.1,39.3,31.9,99,95,79,30.50,30.02,10,4,0,0.08
2013-4-24,76.1,55.7,40.8,54.1,45.7,39.7,99,75,27,30.01,29.68,14,5,0,0.01
2013-4-25,67.6,55.0,37.4,53.7,39.0,26.6,99,61,26,30.17,29.73,9,4,0,0.03
2013-4-26,66.7,48.9,32.2,42.1,37.4,31.3,99,70,34,30.34,30.18,11,3,0,0.00
2013-4-27,71.6,50.6,31.5,45.5,37.1,31.3,99,66,28,30.34,30.19,9,2,0,0.00
2013-4-28,73.4,52.7,32.0,46.5,35.5,30.2,99,59,27,30.26,30.12,12,3,0,0.00
2013-4-29,69.1,55.4,41.0,49.2,38.5,29.4,99,59,27,30.20,30.10,12,3,0,0.00
2013-4-30,77.0,56.5,36.3,41.5,31.9,20.9,96,48,16,30.27,30.16,9,2,0,0.00